Regional Weather Roundup
Issued by NWS

Home | Current Version | Previous Version | Text Only | Print | Product List | Glossary On
Versions: 1 2 3 4 5 6 7 8 9 10 11 12 13 14 15 16 17 18 19 20 21 22 23 24 25 26 27 28 29 30 31 32 33 34 35 36 37 38 39 40 41 42 43 44 45 46 47 48 49 50
000
ASUS43 KLOT 192308
RWRIL

ILLINOIS REGIONAL WEATHER ROUNDUP
NATIONAL WEATHER SERVICE CHICAGO/ROMEOVILLE IL
600 PM CDT THU APR 19 2018

NOTE: "FAIR" INDICATES FEW OR NO CLOUDS BELOW 12,000 FEET WITH NO
SIGNIFICANT WEATHER AND/OR OBSTRUCTIONS TO VISIBILITY.

* THESE STATIONS ARE NOT UNDER NWS QUALITY CONTROL. THEY ALSO MAY NOT
  REPORT WEATHER SUCH AS PRECIPITATION OR FOG.

ILZ001-002-007-009-015-016-024-200000-
NORTHWEST ILLINOIS

CITY           SKY/WX    TMP DP  RH WIND       PRES   REMARKS
MOLINE         FAIR      55  26  32 NW9       30.42S
STERLING*      FAIR      53  26  35 NW12      30.43S
SAVANNA*       FAIR      53  24  32 NW8       30.43F
$$

ILZ003-004-008-010-011-017-018-200000-
NORTH CENTRAL ILLINOIS

CITY           SKY/WX    TMP DP  RH WIND       PRES   REMARKS
ROCKFORD       FAIR      52  19  27 N13       30.43R
FREEPORT*      FAIR      49  26  39 NW12      30.45S
ROCHELLE*      FAIR      52  28  39 N12       30.42S
DE KALB*       FAIR      51  26  37 N13       30.41S
PERU*          FAIR      55  29  36 N12       30.42R
$$

ILZ005-006-012>014-019>023-200000-
NORTHEAST ILLINOIS

CITY           SKY/WX    TMP DP  RH WIND       PRES   REMARKS
CHICAGO-OHARE  FAIR      53  22  29 N6        30.39R
CHICAGO-MIDWAY FAIR      52  24  33 NE9       30.39R
AURORA         FAIR      51  17  26 N17       30.41R
LANSING*       FAIR      47  27  46 NE10G16   30.40R
JOLIET*        FAIR      55  23  29 N9        30.39R
WAUKEGAN       FAIR      49  24  37 VRB6      30.41R
DUPAGE AIRPORT FAIR      52  23  32 N12       30.39R
KANKAKEE*      FAIR      52  28  40 NE12      30.39R
WHEELING       FAIR      51  25  36 NW10      30.41R
MORRIS*        FAIR      53  25  34 N9        30.39S
ROMEOVILLE*    FAIR      53  24  31 N10       30.39R
$$

LMZ740>746-200000-
SOUTHERN LAKE MICHIGAN

STATION/POSITION SKY/WX   TEMP    WIND        PRES    VSBY  WAVE
                          AIR SEA DIR/SP/G                  HT/PER
                          (F)     (DEG/KT/KT) (MB)    (MI)  (FT/S)
HARRISON CRIB              40     350/  4/  4   N/A
BURNHAM HARBOR             42      10/  6/ 10   N/A
CALUMET HARBOR             41     360/  7/ 10 1029.0R
BURNS HARBOR               40      30/  8/ 10 1030.1R
MICHIGAN CITY              41     340/ 14/ 15   N/A
$$

ILZ025>027-034>036-040-047-049-050-058-095>099-200000-
WEST-CENTRAL ILLINOIS

CITY           SKY/WX    TMP DP  RH WIND       PRES   REMARKS
QUINCY         SUNNY     56  27  32 N7        30.40F
GALESBURG*     FAIR      57  29  33 N9        30.42F
MACOMB*        SUNNY     55  24  30 NE8       30.44S
JACKSONVILLE*  SUNNY     56  26  32 NE8       30.40S
PITTSFIELD*    SUNNY     57  28  33 N6        30.41S
$$

ILZ028>032-037-038-041>044-048-051>054-059>061-200000-
CENTRAL ILLINOIS

CITY           SKY/WX    TMP DP  RH WIND       PRES   REMARKS
PONTIAC        FAIR      54  30  39 N13       30.40S
BLOOMINGTON    FAIR      54  27  35 N12G21    30.40R
DECATUR        FAIR      56  25  30 N10       30.38R
PEORIA         FAIR      55  25  31 N9        30.41S
LACON*         FAIR      54  27  36 N10       30.41S
LINCOLN*       FAIR      56  28  34 N9        30.40S
SPRINGFIELD    FAIR      57  25  29 NE9       30.40S
TAYLORVILLE    FAIR      55  26  33 N13       30.39R
$$

ILZ033-039-045-046-055>057-062-063-200000-
EAST-CENTRAL ILLINOIS

CITY           SKY/WX    TMP DP  RH WIND       PRES   REMARKS
CHAMPAIGN      FAIR      55  26  32 NW13      30.37R
DANVILLE*      FAIR      53  23  31 N15G22    30.34S
RANTOUL*       FAIR      55  29  36 N10       30.38R
MATTOON        FAIR      55  27  34 N18       30.35S
PARIS*         FAIR      54  32  42 N10G20    30.37R
$$

ILZ079-100>102-200000-
SOUTHWEST ILLINOIS

CITY           SKY/WX    TMP DP  RH WIND       PRES   REMARKS
ALTON          MOSUNNY   57  32  38 NE12      30.39F
BELLEVILLE     SUNNY     56  31  39 NE12G17   30.38S
CAHOKIA*       SUNNY     56  30  37 N9        30.39S
SPARTA*        MOSUNNY   52  36  54 N7        30.40S
$$

ILZ064>066-069>071-074>076-080>082-084>086-088>090-092>094-200000-
SOUTH-CENTRAL ILLINOIS

CITY           SKY/WX    TMP DP  RH WIND       PRES   REMARKS
CARBONDALE     PTSUNNY   53  33  46 N13       30.38S
CAIRO*         FAIR      52  33  47 N12G23    30.37S
EFFINGHAM*     FAIR      56  32  40 NW8       30.38R
MARION         MOSUNNY   52  32  46 N10       30.38S
MT. VERNON     FAIR      54  32  43 N10       30.38R
CENTRALIA*     SUNNY     55  35  46 N10       30.37S
SALEM*         FAIR      56  32  40 NE6       30.38S
METROPOLIS*    FAIR      53  34  47 N10G16    30.37S
$$

ILZ067-068-072-073-078-083-087-091-200000-
SOUTHEAST ILLINOIS

CITY           SKY/WX    TMP DP  RH WIND       PRES   REMARKS
LAWRENCEVILLE  FAIR      57  30  35 N9        30.35S
FLORA*         FAIR      56  33  41 N9        30.37S
FAIRFIELD*     FAIR      53  32  44 N7        30.36S
HARRISBURG*    FAIR      53  35  51 NE10      30.38S
ROBINSON*      FAIR      54  31  41 N10       30.36S
CARMI*         FAIR      54  33  46 N9        30.36S
$$

ABBREVIATIONS USED IN REMARKS
   TC - TEMPERATURE IN CELSIUS
  WCI - WIND CHILL INDEX
   HX - HEAT INDEX
  VSB - VISIBILITY
$$





USA.gov is the U.S. government's official web portal to all federal, state and local government web resources and services.